SCP
0 0 0 0 0 0 0 0 0 0 0 0 0 0 0 0 0 0 0 0 0 0 0 0 0 0 0 0 0 0 0 0 0 0 0 0 0 0 0 0 0 0 0
0 0 0 0 0 0 0 0 0 0 0 0 0 0 0 0 0 0 0 0 0 0 0 0 0 0 0 0 0 0 0 0 0 0 0 0 0 0 0 0 0 0 0
0 0 0 0 0 0 0 0 0 0 0 0 0 0 0 0 0 0 0 0 0 0 0 0 0 0 0 0 0 0 0 0 0 0 0 0 0 0 0 0 0 0 0
0 0 0 0 0 0 0 0 0 0 0 0 0 0 0 0 0 0 0 0 0 0 0 0 0 0 0 0 0 0 0 0 0 0 0 0 0 0 0 0 0 0 0
0 0 0 0 0 0 0 0 0 0 0 0 0 0 0 0 0 0 0 0 0 0 0 0 0 0 0 0 0 0 0 0 0 0 0 0 0 0 0 0 0 0 0
0 0 0 0 0 0 0 0 0 0 0 0 0 0 0 0 0 0 0 0 0 0 0 0 0 0 0 0 0 0 0 0 0 0 0 0 0 0 0 0 0 0 0
0 0 0 0 0 0 0 0 0 0 0 0 0 0 0 0 0 0 0 0 0 0 0 0 0 0 0 0 0 0 0 0 0 0 0 0 0 0 0 0 0 0 0
0 0 0 0 0 0 0 0 0 0 0 0 0 0 0 0 0 0 0 0 0 0 0 0 0 0 0 0 0 0 0 0 0 0 0 0 0 0 0 0 0 0 0
0 0 0 0 0 0 0 0 0 0 0 0 0 0 0 0 0 0 0 0 0 0 0 0 0 0 0 0 0 0 0 0 0 0 0 0 0 0 0 0 0 0 0
0 0 0 0 0 0 0 0 0 0 0 0 0 0 0 0 0 0 0 0 0 0 0 0 0 0 0 0 0 0 0 0 0 0 0 0 0 0 0 0 0 0 0
0 0 0 0 0 0 0 0 0 0 0 0 0 0 0 0 0 0 0 0 0 0 0 0 0 0 0 0 0 0 0 0 0 0 0 0 0 0 0 0 0 0 0
0 0 0 0 0 0 0 0 0 0 0 0 0 0 0 0 0 0 0 0 0 0 0 0 0 0 0 0 0 0 0 0 0 0 0 0 0 0 0 0 0 0 0
0 0 0 0 0 0 0 0 0 0 0 0 0 0 0 0 0 0 0 0 0 0 0 0 0 0 0 0 0 0 0 0 0 0 0 0 0 0 0 0 0 0 0
0 0 1 1 0 0 0 0 0 0 0 0 1 1 1 1 0 0 0 0 0 0 0 0 0 0 0 0 0 0 0 0 0 0 0 0 0 0 0 0 0 0 0
0 0 1 1 1 0 0 0 0 0 1 1 1 1 1 1 0 0 0 0 0 0 0 0 0 0 0 0 0 0 0 0 0 0 0 0 0 0 0 0 0 0 0
0 0 0 1 1 1 1 1 1 1 1 1 1 1 1 1 1 0 0 0 0 0 0 0 0 0 0 0 0 0 0 0 0 0 0 0 0 0 0 0 0 0 0
0 0 0 1 1 1 1 1 1 1 1 1 1 1 1 1 1 1 1 0 0 0 0 0 0 0 0 0 0 0 0 0 0 0 0 0 0 0 0 0 0 0 0
0 0 0 0 1 1 1 1 1 1 1 1 1 1 1 1 1 1 1 1 0 0 1 1 1 1 0 0 0 0 0 0 0 0 0 0 0 0 0 0 0 0 0
0 0 1 1 1 1 1 1 1 1 1 1 1 1 1 1 1 1 1 1 1 1 1 1 1 1 1 0 0 0 0 0 0 0 0 0 0 0 0 0 0 0 0
1 1 1 1 1 1 1 1 1 1 1 1 1 1 1 1 1 1 1 1 1 1 1 1 1 1 1 0 0 0 0 1 1 1 0 0 0 0 0 0 0 0 0
1 1 1 1 1 1 1 1 1 1 1 1 1 1 1 1 1 1 1 1 1 1 1 1 1 1 1 0 0 0 0 1 1 1 1 0 0 0 0 0 0 0 0
1 1 1 1 1 1 1 2 2 1 1 1 1 1 1 1 1 1 1 1 1 1 1 1 1 1 1 1 0 0 0 0 1 1 1 1 0 0 0 0 0 0 0
1 1 1 1 1 1 1 2 2 2 2 2 2 2 1 1 1 1 1 1 1 1 1 1 1 1 1 1 0 0 0 0 0 1 1 0 0 0 0 0 0 0 0
1 1 1 1 1 1 1 2 2 2 2 2 2 2 2 1 1 1 1 1 1 1 1 1 1 1 1 1 1 1 0 0 0 1 0 0 0 0 0 0 0 0 0
1 1 1 1 1 1 2 2 2 2 2 2 2 2 1 1 1 1 1 1 1 1 1 1 1 1 1 1 1 1 0 0 0 0 0 0 0 0 0 0 0 0 0
1 1 1 1 1 1 2 2 2 2 2 2 2 1 1 1 1 1 1 1 1 1 1 1 1 1 1 1 1 0 0 0 0 0 0 0 0 0 0 0 0 0 0
Wind_Speed
7 7 6 5 5 4 4 3 2 2 1 1 1 1 2 1 2 2 3 3 3 3 2 2 3 2 2 2 3 3 4 3 3 3 3 3 3 3 2 2 2 2 2
8 7 7 6 5 5 4 4 4 3 3 1 1 0 1 1 2 2 3 2 2 2 2 2 2 2 2 3 3 3 2 3 2 1 2 3 4 2 2 1 1 2 2
9 9 8 7 7 6 6 4 4 3 3 2 2 2 2 2 2 2 2 2 2 2 2 2 2 2 2 2 3 3 3 2 3 1 1 0 2 3 3 2 2 2 1
10 9 9 9 8 7 6 5 5 4 3 3 2 2 1 1 2 1 2 3 2 2 2 2 2 2 2 2 3 3 2 2 2 2 0 1 2 0 2 3 3 3 2
10 10 10 10 9 8 7 6 5 5 4 3 3 3 2 2 2 2 3 2 3 2 2 3 2 2 2 2 2 2 2 2 2 2 2 2 2 1 1 2 2 2 2
10 10 10 9 9 8 7 7 7 6 5 4 4 3 2 2 2 2 3 3 2 2 3 3 2 2 2 2 2 2 3 1 1 1 1 2 2 2 1 1 2 2 2
10 10 10 10 9 9 8 8 7 7 6 5 4 4 3 3 3 2 2 2 2 2 2 2 2 2 2 2 2 2 1 2 2 2 1 1 1 1 1 1 1 1 1
10 10 10 10 10 10 9 9 8 7 6 6 5 4 4 3 3 2 1 2 2 2 2 2 2 2 2 2 2 2 2 1 1 1 1 1 1 1 2 1 1 1 1
10 10 10 10 10 10 10 10 9 8 7 7 6 5 4 3 3 3 3 2 2 3 3 2 2 2 2 2 2 1 1 1 1 1 2 2 1 2 2 2 1 1 1
9 10 9 9 9 9 9 9 9 8 7 7 6 6 6 5 4 4 3 3 3 2 3 3 2 2 1 2 2 2 2 2 1 0 1 1 2 2 2 2 2 1 1
9 9 8 8 8 8 9 9 9 8 8 7 6 6 6 6 5 4 4 4 3 3 3 3 2 2 2 1 1 2 2 2 1 1 2 1 1 2 2 2 2 2 2
7 8 8 8 8 8 8 8 9 9 8 8 7 7 6 6 6 5 5 4 4 4 4 3 3 2 2 2 2 2 2 2 2 1 1 2 2 2 2 1 2 2 2
6 7 8 8 7 8 7 8 8 9 8 8 8 7 7 7 6 5 5 5 5 4 4 3 3 2 2 2 2 2 2 2 2 2 2 2 2 2 2 2 2 2 2
6 6 7 7 7 7 7 7 8 8 9 8 8 8 7 7 7 6 6 5 5 5 4 4 3 3 3 3 2 2 2 2 2 2 2 2 2 2 2 2 3 3 3
6 6 6 6 7 7 7 7 7 8 8 9 8 8 8 7 7 7 7 6 6 5 5 4 4 4 3 3 3 3 3 3 2 2 2 2 2 2 0 1 2 3 3
5 6 6 6 7 7 7 7 7 7 8 9 9 8 8 8 7 7 7 6 6 5 5 5 5 4 3 3 2 3 3 3 3 2 2 3 4 4 3 2 1 1 2
5 5 5 5 6 6 7 7 7 7 8 8 8 8 8 8 8 7 7 6 6 6 5 5 5 4 3 4 4 3 3 3 2 3 3 2 3 4 3 4 3 1 1
4 5 5 5 5 6 6 6 7 7 8 8 8 8 8 8 8 7 7 7 6 6 6 6 6 5 5 6 6 5 5 4 3 3 3 3 3 2 2 3 3 3 3
4 4 4 4 5 5 6 7 7 7 8 8 8 9 8 8 8 8 7 7 6 6 6 6 6 5 5 7 7 7 5 4 4 4 3 3 3 2 2 3 3 3 3
3 3 3 4 4 4 5 7 7 7 7 7 7 7 8 8 8 8 7 6 6 6 5 5 5 6 5 7 8 8 6 5 5 5 4 3 3 3 3 4 4 4 3
4 4 4 4 3 4 5 7 7 7 7 7 7 7 7 8 8 7 6 6 6 6 5 5 5 5 5 7 8 8 5 5 5 5 4 4 6 4 3 4 3 3 3
3 3 3 3 3 4 5 6 7 6 6 6 7 6 6 6 6 7 6 6 6 6 6 6 6 5 5 6 7 8 7 4 5 4 4 4 7 6 4 3 2 2 4
2 2 3 3 3 4 5 6 5 5 6 6 6 6 6 6 6 7 7 7 7 6 6 6 6 5 5 6 7 8 7 6 4 2 2 4 7 6 5 5 5 5 5
2 2 3 3 3 4 4 5 4 5 6 6 6 6 6 6 6 5 6 6 6 7 6 6 6 5 6 6 7 7 7 7 7 5 5 6 6 5 3 5 6 6 4
2 2 2 2 3 3 3 4 4 5 6 6 6 6 5 5 5 5 4 6 5 5 6 6 5 6 6 5 4 5 6 6 5 4 5 5 5 5 5 5 5 5 5
2 2 2 2 2 2 3 3 4 5 5 5 6 5 5 4 5 5 4 0 2 3 4 3 4 3 3 6 6 5 4 4 6 6 6 6 6 5 5 5 5 5 5
Wind_Direction
173 176 178 178 174 167 168 174 179 167 198 204 207 136 120 106 104 105 102 115 118 118 122 123 132 145 120 126 139 139 136 136 138 141 127 118 106 93 91 77 71 82 72
179 180 180 178 179 173 176 177 180 175 194 159 176 134 89 105 92 88 104 117 119 122 131 129 148 134 132 136 140 145 150 142 151 175 162 148 137 131 96 98 97 76 74
183 180 179 179 182 179 181 180 178 178 186 179 175 149 152 169 138 125 122 114 114 118 105 126 125 131 142 137 155 166 165 156 152 159 265 183 114 126 121 105 94 80 64
185 184 181 180 184 183 179 175 174 177 179 190 186 178 166 133 105 110 106 120 121 123 124 128 126 137 133 144 174 157 175 187 166 150 123 25 61 159 127 125 111 102 74
189 186 184 181 183 180 176 171 169 173 177 188 176 190 178 151 138 122 116 132 129 137 137 141 136 140 138 136 148 158 195 191 192 162 145 137 143 180 165 120 122 106 81
189 187 182 179 182 180 178 172 169 176 179 185 186 196 174 160 140 135 135 155 139 139 144 149 146 147 138 145 161 174 176 185 192 215 176 170 169 163 142 139 150 113 84
187 186 183 182 182 182 180 176 173 177 180 182 186 186 182 177 172 172 146 156 135 133 128 131 142 139 148 157 159 159 156 170 179 204 200 193 184 157 148 145 127 98 93
186 185 183 185 184 183 183 180 178 180 179 182 183 185 190 193 174 172 162 145 123 109 117 134 138 141 168 175 169 174 171 164 179 181 195 213 182 167 168 164 157 153 131
179 181 182 185 185 184 185 185 181 182 182 183 180 181 188 192 169 163 174 151 130 139 137 137 141 149 172 183 191 161 178 171 192 176 181 205 167 184 183 183 201 219 172
176 178 179 182 184 184 183 185 184 183 184 183 186 176 179 177 174 175 156 150 146 135 142 149 151 154 155 167 191 175 158 161 154 145 131 203 184 177 200 201 211 227 200
176 177 176 178 179 181 180 182 184 183 184 187 185 180 176 168 167 169 167 163 157 155 156 156 158 159 167 174 181 183 158 159 153 171 164 189 212 204 210 200 199 200 178
175 174 173 173 176 179 181 183 185 185 185 183 183 183 175 170 171 171 168 163 166 170 164 164 166 170 156 166 183 175 159 165 170 175 185 197 188 188 219 215 198 169 170
173 171 171 173 178 182 183 185 188 188 187 182 185 180 176 175 178 174 166 166 169 173 172 171 171 172 170 171 175 180 176 180 183 184 195 195 184 199 192 206 189 177 177
171 174 174 177 179 184 185 187 190 190 186 184 187 180 181 179 178 174 170 173 176 179 180 177 180 183 180 177 177 175 169 177 179 174 185 195 195 197 197 197 190 187 180
176 178 181 179 183 186 189 191 191 189 187 185 188 184 183 179 178 175 176 176 183 188 183 183 187 190 192 189 183 188 182 177 165 153 161 153 116 72 33 243 192 185 190
191 186 186 184 189 190 191 192 193 190 187 189 189 183 183 182 182 180 177 176 182 188 186 188 191 196 196 124 162 215 183 183 177 168 161 150 140 122 111 63 37 334 206
209 202 199 195 194 195 195 195 192 189 189 191 189 183 185 187 187 185 180 180 183 186 190 191 193 192 173 150 161 198 204 189 185 184 184 184 143 159 160 150 161 145 28
221 213 210 203 202 198 196 199 190 190 192 194 192 187 190 191 188 187 187 186 184 186 190 193 194 193 176 163 173 190 197 191 190 189 184 179 175 163 177 178 167 170 167
230 226 223 213 205 199 194 194 193 192 195 198 197 193 194 191 188 189 188 184 183 187 190 189 190 193 179 171 183 197 189 182 185 186 183 185 166 131 198 179 171 166 159
239 231 227 220 204 201 198 199 196 192 196 199 200 196 194 194 194 191 188 183 183 186 189 186 191 190 183 172 186 207 200 184 184 176 171 157 167 164 200 192 185 189 181
248 235 229 227 217 204 198 203 200 200 199 196 196 195 197 196 195 189 186 183 185 182 188 188 188 187 183 175 186 208 218 197 194 187 183 161 152 168 199 224 207 201 204
258 243 235 234 221 208 202 208 208 201 195 195 195 194 196 201 191 188 190 189 187 187 189 188 190 185 183 183 184 196 221 238 204 202 189 150 148 166 189 200 169 186 223
284 270 251 246 231 217 211 216 214 200 192 190 193 195 191 195 194 193 195 194 195 202 200 197 197 191 183 172 172 187 206 231 228 209 119 135 155 172 184 186 187 202 217
290 264 250 245 237 224 217 217 207 199 195 191 189 189 192 193 189 199 204 204 204 210 208 207 203 195 191 189 180 181 188 196 204 199 154 158 172 192 184 178 195 216 225
285 259 249 246 243 224 211 203 196 197 198 192 192 194 198 194 196 204 210 219 216 216 217 216 210 206 207 193 177 193 194 198 189 181 189 190 186 194 196 199 202 208 208
283 269 263 254 249 232 213 203 195 194 198 206 201 201 202 197 206 202 202 196 234 180 201 232 239 220 180 158 162 173 172 167 171 195 203 204 205 208 209 207 206 211 215